Home   Weather   Mosbach   Past weeks

Flag for Germany Past Weather in Mosbach, Baden-Württemberg, Germany — Yesterday and Last 2 Weeks

45 °F

Light rain. Fog.

Feels Like: 43 °F
Forecast: 36 / 55 °F
Wind: 3 mph from North

Location: Mannheim City

Current Time: Oct 22, 2016 at 11:02:41 AM

Latest Report: Oct 22, 2016 at 10:20 AM

Visibility: 3 mi

Pressure: 29.95 "Hg

Humidity: 100%

Dew Point: 45 °F

Location of MosbachLocation

Past Weather in Mosbach — Graph


Mosbach Temperature Yesterday

Maximum temperature yesterday: 48 °F (at 12:20 PM)
Minimum temperature yesterday: 43 °F (at 5:50 AM)
Average temperature yesterday: 46 °F

High & Low Weather Summary for the Past Weeks

High63 °F (Oct 15, 5:50 PM)100% (Oct 7, 9:20 AM)30.24 "Hg (Oct 7, 9:20 AM)
Low36 °F (Oct 9, 7:50 AM)51% (Oct 11, 2:20 PM)29.65 "Hg (Oct 14, 5:50 PM)
Average51 °F84%30.06 "Hg
* Reported Oct 7 9:20 AM — Oct 22 9:50 AM, Mosbach, Weather by CustomWeather, © 2016

Note: Actual official high and low records may vary slightly from our data, if they occured in-between our weather recording intervals... More about our weather records


Mosbach Weather History for the Previous 24 Hours

Scroll right to see more
Time TempWeatherWind HumidityBarometerVisibility
9:50 AM
Sat, Oct 22
45 °FLight rain. Fog.3 mph100%29.95 "Hg2 mi
9:20 AM45 °FLight rain. Partly sunny.3 mph100%29.95 "Hg4 mi
8:50 AM45 °FPartly sunny.5 mph100%29.95 "Hg4 mi
8:20 AM45 °FLight rain. Broken clouds.5 mph100%29.95 "Hg4 mi
7:50 AM45 °FLight rain. Passing clouds.3 mph100%29.95 "Hg4 mi
8:20 PM
Fri, Oct 21
46 °FPartly cloudy.3 mph100%30.01 "HgN/A
7:50 PM46 °FMostly cloudy.2 mph93%30.01 "HgN/A
7:20 PM46 °FOvercast.2 mph100%30.01 "HgN/A
6:50 PM46 °FOvercast.3 mph93%30.01 "HgN/A
6:20 PM46 °FOvercast.3 mph93%30.01 "HgN/A
5:50 PM46 °FPartly sunny.5 mph93%30.01 "HgN/A
5:20 PM48 °FPartly sunny.5 mph87%29.98 "HgN/A
4:50 PM48 °FPartly sunny.5 mph87%29.98 "HgN/A
4:20 PM48 °FClear.7 mph87%30.01 "HgN/A
3:50 PM48 °FDrizzle. Partly sunny.3 mph94%30.01 "HgN/A
3:20 PM48 °FDrizzle. Partly sunny.5 mph94%30.01 "Hg5 mi
2:50 PM46 °FDrizzle. Partly sunny.5 mph100%30.01 "HgN/A
2:20 PM48 °FBroken clouds.6 mph94%30.01 "HgN/A
1:50 PM46 °FDrizzle. Broken clouds.6 mph100%30.01 "Hg5 mi
1:20 PM46 °FScattered showers. Partly sunny.7 mph100%30.01 "Hg4 mi
12:50 PM48 °FScattered showers. Broken clouds.7 mph87%30.01 "HgN/A
12:20 PM48 °FScattered showers. Broken clouds.5 mph94%30.01 "HgN/A
11:50 AM46 °FBroken clouds.5 mph100%30.01 "HgN/A
11:20 AM46 °FBroken clouds.5 mph93%29.98 "HgN/A
Weather by CustomWeather, © 2016

See weather overviewHow to use our weather pages